Canyon City, OR

12:02 PM PDT on August 27, 2016 (GMT -0700)
Grant County Regional

Weather History for KGCD - July, 2013

Change the Weather History Date:

Sunday, July 14, 2013

  Actual Average (KBNO) Record (KBNO)
Temperature  
Mean Temperature 72 °F 67 °F  
Max Temperature 91 °F 86 °F 97 °F (2007)
Min Temperature 55 °F 48 °F 34 °F (2010)
Degree Days  
Heating Degree Days 0 2  
Month to date heating degree days 36  
Since 1 June heating degree days 254  
Since 1 July heating degree days 36  
Cooling Degree Days 8 4  
Month to date cooling degree days 38  
Year to date cooling degree days 61  
Since 1 June cooling degree days 58  
Growing Degree Days 22 (Base 50)    
Moisture  
Dew Point 35 °F    
Average Humidity 27    
Maximum Humidity 51    
Minimum Humidity 13    
Precipitation  
Precipitation 0.00 in 0.01 in 0.27 in (2001)
Month to date precipitation 0.19  
Year to date precipitation 6.41  
Sea Level Pressure  
Sea Level Pressure 30.09 in    
Wind  
Wind Speed 5 mph (NW)    
Max Wind Speed 15 mph    
Max Gust Speed 21 mph    
Visibility 10 miles    
Events Rain    
T = Trace of Precipitation, MM = Missing Value Source: NWS Daily Summary

Daily Weather History Graph

Daily Weather History Graph

Search for Another Location

Airport or City:

Trip Planner

Search our weather history database for the weather conditions in past years. The results will help you decide how hot, cold, wet, or windy it might be!

Date:

Astronomy

Jul. 14, 2013 Rise Set
Actual Time 5:25 AM PDT 8:38 PM PDT
Civil Twilight 4:49 AM PDT 9:13 PM PDT
Nautical Twilight 4:03 AM PDT 9:59 PM PDT
Astronomical Twilight 3:07 AM PDT 10:54 PM PDT
Moon 12:04 PM PDT (7/14) 11:34 PM PDT (7/14)
Length of Visible Light 16h 23m
Length of Day
15h 13m
Waxing Crescent, 36% of the Moon is Illuminated
Jul 14
Waxing Crescent
Jul 15
First Quarter
Jul 22
Full
Jul 29
Last Quarter
Aug 6
New

Hourly Weather History & Observations

Time (PDT) Temp. Dew Point Humidity Pressure Visibility Wind Dir Wind Speed Gust Speed Precip Events Conditions
12:15 AM 66.4 °F 32.7 °F 29% 30.15 in 10.0 mi NW 5.8 mph - N/A   Mostly Cloudy
12:35 AM 67.1 °F 32.2 °F 27% 30.16 in 10.0 mi WSW 4.6 mph - N/A   Mostly Cloudy
12:55 AM 66.2 °F 33.8 °F 30% 30.17 in 10.0 mi WNW 8.1 mph - N/A   Mostly Cloudy
1:15 AM 63.1 °F 38.1 °F 40% 30.15 in 10.0 mi Calm Calm - N/A Rain Light Rain
1:35 AM 60.8 °F 41.0 °F 48% 30.18 in 10.0 mi West 9.2 mph - N/A   Scattered Clouds
1:55 AM 62.2 °F 39.0 °F 42% 30.16 in 10.0 mi ENE 5.8 mph - N/A Rain Light Rain
2:15 AM 62.8 °F 37.9 °F 40% 30.15 in 10.0 mi East 4.6 mph - N/A   Mostly Cloudy
2:35 AM 62.6 °F 37.2 °F 39% 30.16 in 10.0 mi Calm Calm - N/A   Mostly Cloudy
2:55 AM 60.8 °F 37.0 °F 41% 30.14 in 10.0 mi East 5.8 mph - N/A Rain Light Rain
3:15 AM 59.5 °F 34.7 °F 39% 30.14 in 10.0 mi ENE 9.2 mph - N/A   Clear
3:35 AM 58.5 °F 34.5 °F 41% 30.14 in 10.0 mi East 8.1 mph - N/A   Scattered Clouds
3:55 AM 58.8 °F 34.0 °F 39% 30.14 in 10.0 mi East 10.4 mph - N/A   Scattered Clouds
4:15 AM 60.1 °F 34.2 °F 38% 30.14 in 10.0 mi East 6.9 mph - N/A   Scattered Clouds
4:35 AM 58.6 °F 34.3 °F 40% 30.15 in 10.0 mi ESE 6.9 mph - N/A   Scattered Clouds
4:55 AM 57.6 °F 34.0 °F 41% 30.15 in 10.0 mi SE 4.6 mph - N/A   Clear
5:15 AM 59.0 °F 33.8 °F 39% 30.15 in 10.0 mi Calm Calm - N/A   Scattered Clouds
5:35 AM 56.8 °F 34.5 °F 43% 30.15 in 10.0 mi Calm Calm - N/A   Scattered Clouds
5:55 AM 56.5 °F 35.4 °F 45% 30.16 in 10.0 mi WNW 3.5 mph - N/A   Clear
6:15 AM 55.8 °F 37.8 °F 51% 30.16 in 10.0 mi West 3.5 mph - N/A   Clear
6:35 AM 57.7 °F 37.4 °F 47% 30.16 in 10.0 mi Calm Calm - N/A   Clear
6:55 AM 59.5 °F 36.7 °F 43% 30.16 in 10.0 mi Calm Calm - N/A   Clear
7:15 AM 61.7 °F 36.1 °F 39% 30.16 in 10.0 mi Calm Calm - N/A   Clear
7:35 AM 62.6 °F 36.5 °F 38% 30.17 in 10.0 mi Calm Calm - N/A   Clear
7:55 AM 64.0 °F 38.3 °F 39% 30.17 in 10.0 mi Calm Calm - N/A   Clear
8:15 AM 64.9 °F 38.1 °F 37% 30.17 in 10.0 mi Calm Calm - N/A   Clear
8:35 AM 66.0 °F 37.9 °F 36% 30.16 in 10.0 mi Calm Calm - N/A   Clear
8:55 AM 68.4 °F 38.5 °F 33% 30.16 in 10.0 mi Calm Calm - N/A   Clear
9:15 AM 68.9 °F 38.7 °F 33% 30.16 in 10.0 mi Calm Calm - N/A   Clear
9:35 AM 70.5 °F 39.0 °F 32% 30.15 in 10.0 mi Calm Calm - N/A   Clear
9:55 AM 72.0 °F 38.7 °F 30% 30.15 in 10.0 mi Calm Calm - N/A   Clear
10:15 AM 73.6 °F 38.7 °F 28% 30.14 in 10.0 mi Calm Calm - N/A   Clear
10:35 AM 75.7 °F 38.3 °F 26% 30.14 in 10.0 mi NNW 4.6 mph - N/A   Clear
10:55 AM 78.3 °F 37.6 °F 23% 30.13 in 10.0 mi WNW 3.5 mph - N/A   Clear
11:15 AM 78.4 °F 37.2 °F 23% 30.13 in 10.0 mi NW 3.5 mph - N/A   Clear
11:35 AM 80.1 °F 37.8 °F 22% 30.12 in 10.0 mi NW 3.5 mph - N/A   Clear
11:55 AM 80.6 °F 37.0 °F 21% 30.12 in 10.0 mi North 4.6 mph - N/A   Clear
12:15 PM 83.7 °F 34.5 °F 17% 30.11 in 10.0 mi North 3.5 mph - N/A   Clear
12:35 PM 84.7 °F 32.4 °F 15% 30.10 in 10.0 mi NW 9.2 mph - N/A   Clear
12:55 PM 86.2 °F 34.2 °F 16% 30.10 in 10.0 mi WNW 9.2 mph - N/A   Clear
1:15 PM 86.5 °F 34.9 °F 16% 30.09 in 10.0 mi NW 9.2 mph - N/A   Clear
1:35 PM 87.1 °F 34.3 °F 15% 30.08 in 10.0 mi North 4.6 mph - N/A   Clear
1:55 PM 87.8 °F 34.5 °F 15% 30.07 in 10.0 mi WNW 5.8 mph 16.1 mph N/A   Clear
2:15 PM 88.3 °F 34.0 °F 14% 30.06 in 10.0 mi NW 9.2 mph 20.7 mph N/A   Clear
2:35 PM 89.1 °F 33.8 °F 14% 30.05 in 10.0 mi West 9.2 mph - N/A   Clear
2:55 PM 89.2 °F 33.6 °F 14% 30.05 in 10.0 mi NNW 11.5 mph 16.1 mph N/A   Clear
3:15 PM 89.8 °F 34.0 °F 14% 30.04 in 10.0 mi West 15.0 mph 18.4 mph N/A   Clear
3:35 PM 89.8 °F 33.3 °F 13% 30.03 in 10.0 mi WNW 11.5 mph 17.3 mph N/A   Clear
3:55 PM 90.0 °F 33.4 °F 13% 30.03 in 10.0 mi WNW 11.5 mph - N/A   Clear
4:15 PM 90.3 °F 33.4 °F 13% 30.02 in 10.0 mi NW 12.7 mph - N/A   Clear
4:35 PM 90.1 °F 33.4 °F 13% 30.01 in 10.0 mi NW 8.1 mph 18.4 mph N/A   Clear
4:55 PM 90.1 °F 33.4 °F 13% 30.01 in 10.0 mi WNW 9.2 mph 12.7 mph N/A   Clear
5:15 PM 90.7 °F 34.0 °F 13% 30.00 in 10.0 mi WNW 10.4 mph 18.4 mph N/A   Clear
5:35 PM 90.1 °F 33.4 °F 13% 29.99 in 10.0 mi WNW 10.4 mph 18.4 mph N/A   Clear
5:55 PM 90.0 °F 33.4 °F 13% 29.99 in 10.0 mi WNW 10.4 mph 17.3 mph N/A   Clear
6:15 PM 89.4 °F 32.4 °F 13% 29.98 in 10.0 mi West 9.2 mph - N/A   Clear
6:35 PM 88.9 °F 32.5 °F 13% 29.98 in 10.0 mi WNW 9.2 mph - N/A   Clear
6:55 PM 87.8 °F 33.1 °F 14% 29.98 in 10.0 mi North 10.4 mph - N/A   Clear
7:15 PM 86.4 °F 32.9 °F 15% 29.99 in 10.0 mi NNW 11.5 mph 17.3 mph N/A   Clear
7:35 PM 85.8 °F 33.4 °F 15% 29.99 in 10.0 mi NNW 6.9 mph - N/A   Clear
7:55 PM 83.5 °F 33.4 °F 17% 30.00 in 10.0 mi North 5.8 mph - N/A   Clear
8:15 PM 82.2 °F 32.4 °F 17% 30.00 in 10.0 mi NNW 9.2 mph - N/A   Clear
8:35 PM 79.3 °F 32.9 °F 19% 30.00 in 10.0 mi North 6.9 mph - N/A   Clear
8:55 PM 78.6 °F 33.6 °F 20% 30.01 in 10.0 mi NW 6.9 mph - N/A   Clear
9:15 PM 77.4 °F 34.7 °F 21% 30.01 in 10.0 mi Calm Calm - N/A   Clear
9:35 PM 76.1 °F 34.7 °F 22% 30.02 in 10.0 mi Calm Calm - N/A   Clear
9:55 PM 76.1 °F 34.2 °F 22% 30.02 in 10.0 mi NNW 4.6 mph - N/A   Clear
10:15 PM 76.1 °F 33.8 °F 21% 30.03 in 10.0 mi North 9.2 mph - N/A   Clear
10:35 PM 73.8 °F 34.0 °F 23% 30.03 in 10.0 mi West 3.5 mph - N/A   Clear
10:55 PM 72.0 °F 34.0 °F 25% 30.03 in 10.0 mi Calm Calm - N/A   Clear
11:15 PM 71.1 °F 33.8 °F 25% 30.04 in 10.0 mi NW 3.5 mph - N/A   Clear
11:35 PM 69.6 °F 33.8 °F 27% 30.04 in 10.0 mi NNW 4.6 mph - N/A   Clear
11:55 PM 68.9 °F 33.6 °F 27% 30.04 in 10.0 mi Calm Calm - N/A   Clear